�N����,����,�~����,�C��,���x,�C��,����,���ϕ���,�ő�u�ԕ���,�ő厞����,���˗�,�I�_���x,�n�����x,�ő啗���N��,DTYPE
"20/10/03","00:10",0.0,16.8,88.0,1012.1,287.8,0.8,1.4,312.8,0.00,14.8,20.8,"00:02:32",1
"20/10/03","00:20",0.0,16.6,88.0,1012.6,303.1,0.6,1.3,316.3,0.00,14.6,20.9,"00:16:00",1
"20/10/03","00:30",0.0,16.4,88.3,1012.3,324.1,1.3,1.7,332.1,0.00,14.5,20.8,"00:28:32",1
"20/10/03","00:40",0.0,16.0,88.5,1012.3,309.9,1.2,1.7,330.4,0.00,14.1,20.9,"00:31:04",1
"20/10/03","00:50",0.0,15.9,89.0,1012.6,302.6,1.2,1.6,324.0,0.00,14.1,20.5,"00:43:04",1
"20/10/03","01:00",0.0,15.9,89.2,1012.3,305.2,1.1,1.6,315.4,0.00,14.2,20.7,"00:51:28",1
"20/10/03","01:10",0.0,15.9,89.5,1012.6,305.8,1.1,1.6,305.3,0.00,14.2,20.7,"01:05:44",1
"20/10/03","01:20",0.0,15.9,89.8,1012.6,293.7,1.0,1.3,316.0,0.00,14.3,20.5,"01:17:36",1
"20/10/03","01:30",0.0,15.9,90.0,1012.6,301.6,1.0,1.4,322.6,0.00,14.3,20.7,"01:28:40",1
"20/10/03","01:40",0.0,15.7,90.1,1012.3,301.0,1.0,1.4,316.2,0.00,14.1,20.7,"01:39:12",1
"20/10/03","01:50",0.0,15.6,90.5,1012.3,320.6,1.5,1.9,323.2,0.00,14.1,20.6,"01:42:32",1
"20/10/03","02:00",0.0,15.5,90.8,1012.1,310.0,1.2,1.7,311.9,0.00,14.0,20.5,"01:50:24",1
"20/10/03","02:10",0.0,15.8,91.0,1012.1,287.8,1.0,1.7,260.0,0.00,14.4,20.4,"02:06:56",1
"20/10/03","02:20",0.0,16.2,91.1,1011.9,283.4,1.0,1.3,306.7,0.00,14.8,20.3,"02:14:08",1
"20/10/03","02:30",0.0,16.2,91.1,1011.9,308.2,1.2,1.8,328.3,0.00,14.8,20.3,"02:27:52",1
"20/10/03","02:40",0.0,15.9,91.4,1012.1,323.2,1.3,1.8,315.7,0.00,14.5,20.3,"02:31:04",1
"20/10/03","02:50",0.0,15.6,91.6,1011.9,297.0,1.0,1.6,321.9,0.00,14.3,20.2,"02:49:20",1
"20/10/03","03:00",0.0,15.5,91.8,1012.1,302.2,1.0,1.4,321.3,0.00,14.2,20.2,"02:50:08",1
"20/10/03","03:10",0.0,15.6,92.1,1012.3,302.6,1.2,1.8,310.4,0.00,14.4,20.3,"03:08:24",1
"20/10/03","03:20",0.0,15.6,92.1,1012.3,297.6,1.1,1.6,318.0,0.00,14.4,20.2,"03:19:44",1
"20/10/03","03:30",0.0,15.6,92.3,1012.3,292.7,1.1,1.3,308.6,0.00,14.4,20.2,"03:20:32",1
"20/10/03","03:40",0.0,15.7,92.4,1012.3,280.4,1.0,1.3,256.2,0.00,14.5,20.1,"03:38:00",1
"20/10/03","03:50",0.0,15.8,92.6,1012.3,306.2,1.0,2.1,328.8,0.00,14.6,19.9,"03:48:40",1
"20/10/03","04:00",0.0,15.8,92.6,1012.3,308.1,1.1,1.6,327.2,0.00,14.6,20.0,"03:52:32",1
"20/10/03","04:10",0.0,15.6,92.7,1012.6,320.2,1.5,1.8,323.4,0.00,14.5,20.1,"04:00:16",1
"20/10/03","04:20",0.0,15.4,92.9,1012.6,305.9,1.2,1.6,320.2,0.00,14.3,20.2,"04:12:48",1
"20/10/03","04:30",0.0,15.4,93.1,1012.6,291.8,1.1,1.4,317.0,0.00,14.3,19.9,"04:21:28",1
"20/10/03","04:40",0.0,15.5,93.2,1012.6,288.2,1.0,1.3,318.8,0.00,14.4,19.9,"04:32:48",1
"20/10/03","04:50",0.0,15.5,93.3,1012.3,322.4,1.2,1.9,317.7,0.00,14.5,19.7,"04:42:00",1
"20/10/03","05:00",0.0,15.4,93.4,1012.6,312.4,1.2,1.7,321.5,0.00,14.4,19.6,"04:54:08",1
"20/10/03","05:10",0.0,15.4,93.5,1012.8,309.0,1.1,1.8,321.4,0.00,14.4,19.8,"05:00:08",1
"20/10/03","05:20",0.0,15.6,93.7,1012.8,300.9,1.1,2.2,318.4,0.00,14.6,19.7,"05:17:36",1
"20/10/03","05:30",0.0,16.1,93.7,1012.3,280.0,1.2,2.2,330.7,0.00,15.1,20.0,"05:22:56",1
"20/10/03","05:40",0.0,16.3,93.7,1012.8,291.3,1.0,2.5,342.7,0.00,15.3,19.9,"05:38:24",1
"20/10/03","05:50",0.0,16.7,93.7,1012.6,291.4,0.8,1.8,255.5,0.00,15.7,19.8,"05:44:32",1
"20/10/03","06:00",0.0,16.7,93.6,1012.6,164.4,0.2,0.6,151.7,0.00,15.7,19.7,"05:51:12",1
"20/10/03","06:10",0.0,16.6,93.8,1013.0,303.5,1.0,1.6,311.5,0.00,15.6,19.8,"06:04:16",1
"20/10/03","06:20",0.0,16.7,93.9,1013.0,291.8,0.6,1.1,282.0,0.00,15.8,19.8,"06:13:36",1
"20/10/03","06:30",0.0,16.8,93.9,1012.6,292.5,0.8,1.4,278.2,0.00,15.9,19.9,"06:24:08",1
"20/10/03","06:40",0.0,17.0,93.9,1012.8,326.3,1.3,1.9,329.3,0.01,16.1,19.8,"06:34:16",1
"20/10/03","06:50",0.0,17.2,93.9,1012.8,291.9,0.8,1.6,268.6,0.02,16.2,20.1,"06:48:40",1
"20/10/03","07:00",0.0,17.4,93.7,1013.0,266.0,1.0,1.7,249.1,0.03,16.4,20.0,"06:57:20",1
"20/10/03","07:10",0.0,18.0,93.8,1013.0,287.6,0.8,1.3,308.2,0.05,17.0,20.0,"07:04:32",1
"20/10/03","07:20",0.0,18.4,93.7,1013.0,334.6,1.3,2.4,346.3,0.08,17.4,20.2,"07:16:40",1
"20/10/03","07:30",0.0,18.9,93.2,1013.0,328.6,1.1,1.9,332.4,0.08,17.8,20.2,"07:25:44",1
"20/10/03","07:40",0.0,19.1,92.7,1013.3,285.7,0.5,1.1,318.5,0.07,17.9,20.2,"07:30:32",1
"20/10/03","07:50",0.0,19.3,92.5,1013.3,263.5,0.6,1.0,262.8,0.10,18.1,20.3,"07:40:40",1
"20/10/03","08:00",0.0,20.0,91.7,1012.8,302.2,0.5,1.1,323.1,0.17,18.6,20.6,"07:59:52",1
"20/10/03","08:10",0.0,20.1,91.1,1013.0,312.3,0.6,1.2,322.0,0.10,18.6,20.7,"08:00:08",1
"20/10/03","08:20",0.0,20.5,90.1,1012.8,244.4,0.1,0.6,241.0,0.11,18.9,20.7,"08:17:36",1
"20/10/03","08:30",0.0,20.5,88.7,1013.0,3.1,0.5,1.6,355.5,0.14,18.6,20.6,"08:28:32",1
"20/10/03","08:40",0.0,21.3,87.4,1012.8,349.7,0.2,0.8,272.5,0.12,19.2,20.8,"08:35:12",1
"20/10/03","08:50",0.0,21.5,85.5,1012.6,0.9,0.3,1.2,332.9,0.16,19.0,21.0,"08:49:28",1
"20/10/03","09:00",0.0,22.1,82.9,1012.8,10.3,0.5,1.3,340.1,0.21,19.1,21.2,"08:50:48",1
"20/10/03","09:10",0.0,22.7,79.4,1012.8,33.8,0.5,1.0,60.6,0.26,19.0,21.4,"09:05:04",1
"20/10/03","09:20",0.0,23.5,76.2,1012.6,194.1,0.3,1.1,187.5,0.27,19.1,21.4,"09:19:44",1
"20/10/03","09:30",0.0,23.4,73.7,1012.6,213.3,0.3,1.4,209.6,0.10,18.5,21.6,"09:21:04",1
"20/10/03","09:40",0.0,24.2,72.8,1012.3,347.0,0.7,1.9,350.2,0.34,19.1,21.7,"09:35:52",1
"20/10/03","09:50",0.0,24.8,70.5,1011.9,44.0,0.5,1.4,332.3,0.35,19.1,21.9,"09:40:08",1
"20/10/03","10:00",0.0,25.4,68.4,1011.4,95.6,0.7,1.6,103.1,0.45,19.2,22.2,"09:52:00",1
"20/10/03","10:10",0.0,25.9,65.2,1011.6,14.7,0.7,1.7,57.5,0.43,18.9,22.4,"10:05:04",1
"20/10/03","10:20",0.0,25.7,66.2,1011.6,126.2,0.5,1.3,133.5,0.23,19.0,22.6,"10:11:20",1
"20/10/03","10:30",0.0,25.3,66.4,1011.4,140.1,0.5,1.1,113.3,0.17,18.6,22.6,"10:23:04",1
"20/10/03","10:40",0.0,25.4,68.0,1010.9,193.1,0.3,1.0,187.2,0.16,19.1,22.6,"10:38:00",1
"20/10/03","10:50",0.0,25.4,68.4,1010.7,133.2,0.3,1.0,197.4,0.21,19.2,23.0,"10:40:24",1
"20/10/03","11:00",0.0,25.7,67.5,1010.7,137.6,0.6,1.6,117.1,0.23,19.3,22.9,"10:54:56",1
"20/10/03","11:10",0.0,25.7,66.7,1010.4,144.7,0.5,1.8,114.4,0.22,19.1,23.1,"11:04:40",1
"20/10/03","11:20",0.0,25.4,67.0,1010.2,197.3,0.8,1.8,222.0,0.18,18.9,23.0,"11:12:40",1
"20/10/03","11:30",0.0,25.5,67.0,1010.4,198.2,1.0,2.5,224.9,0.20,19.0,23.3,"11:22:24",1
"20/10/03","11:40",0.0,25.7,65.9,1010.0,174.6,0.7,1.4,227.4,0.22,18.9,23.2,"11:35:04",1
"20/10/03","11:50",0.0,25.6,64.5,1009.7,189.1,0.6,1.4,236.3,0.18,18.5,23.3,"11:42:00",1
"20/10/03","12:00",0.0,26.0,63.1,1009.7,160.5,0.3,1.8,139.7,0.23,18.5,23.3,"11:54:56",1
"20/10/03","12:10",0.0,26.1,60.0,1009.7,209.6,0.6,2.1,205.1,0.18,17.8,23.3,"12:09:52",1
"20/10/03","12:20",0.0,25.5,61.8,1009.0,190.5,1.1,2.2,224.5,0.11,17.7,23.4,"12:12:00",1
"20/10/03","12:30",0.0,25.3,63.8,1008.8,190.5,0.5,1.8,218.5,0.11,18.0,23.3,"12:26:00",1
"20/10/03","12:40",0.0,25.1,64.2,1009.3,227.4,0.6,2.1,228.3,0.09,17.9,23.3,"12:34:16",1
"20/10/03","12:50",0.0,24.9,63.6,1009.0,277.6,0.7,1.8,240.8,0.08,17.6,23.4,"12:42:00",1
"20/10/03","13:00",0.0,24.9,63.9,1009.0,271.7,0.6,1.4,268.5,0.07,17.6,23.5,"12:54:00",1
"20/10/03","13:10",0.0,24.6,65.1,1008.6,326.6,1.2,2.1,342.6,0.06,17.7,23.4,"13:06:32",1
"20/10/03","13:20",0.0,24.9,66.2,1009.0,297.4,0.8,1.9,328.9,0.16,18.2,23.4,"13:10:24",1
"20/10/03","13:30",0.0,25.4,63.3,1009.3,316.8,1.2,2.5,333.2,0.23,18.0,23.5,"13:22:32",1
"20/10/03","13:40",0.0,25.5,60.5,1008.8,334.4,1.3,2.2,340.0,0.20,17.3,23.3,"13:32:24",1
"20/10/03","13:50",0.0,25.4,61.3,1008.8,340.0,1.2,2.0,340.0,0.11,17.5,23.4,"13:40:32",1
"20/10/03","14:00",0.0,25.2,62.6,1008.8,320.8,1.2,2.2,342.2,0.09,17.6,23.4,"13:56:24",1
"20/10/03","14:10",0.0,25.1,63.6,1008.8,311.8,0.8,1.6,320.7,0.09,17.8,23.6,"14:04:48",1
"20/10/03","14:20",0.0,25.3,64.9,1008.1,336.8,0.8,1.8,320.5,0.10,18.3,23.6,"14:16:08",1
"20/10/03","14:30",0.0,25.5,63.8,1008.3,339.8,0.8,1.9,345.5,0.17,18.2,23.4,"14:28:16",1
"20/10/03","14:40",0.0,25.7,62.6,1008.1,340.5,1.0,1.9,339.8,0.12,18.1,23.7,"14:34:48",1
"20/10/03","14:50",0.0,25.4,63.1,1008.1,334.1,1.0,2.0,334.6,0.09,17.9,23.7,"14:40:24",1
"20/10/03","15:00",0.0,25.4,64.4,1007.8,333.5,0.8,1.7,329.4,0.09,18.2,23.7,"14:55:52",1
"20/10/03","15:10",0.0,25.1,65.1,1008.3,317.7,1.0,2.1,331.5,0.07,18.1,23.7,"15:07:04",1
"20/10/03","15:20",0.0,25.0,67.8,1008.1,340.8,1.1,2.0,353.1,0.04,18.7,23.7,"15:16:56",1
"20/10/03","15:30",0.0,24.7,69.6,1008.3,343.1,1.0,2.2,343.4,0.05,18.8,23.5,"15:22:08",1
"20/10/03","15:40",0.0,24.5,70.6,1008.3,334.6,1.0,1.8,341.6,0.06,18.8,23.4,"15:34:00",1
"20/10/03","15:50",0.0,24.3,71.3,1008.1,319.5,1.2,2.1,344.6,0.06,18.8,23.6,"15:48:48",1
"20/10/03","16:00",0.0,24.5,72.3,1008.3,329.6,1.0,1.9,341.4,0.06,19.2,23.5,"15:51:52",1
"20/10/03","16:10",0.0,24.4,72.8,1008.3,326.8,1.1,2.1,344.4,0.03,19.2,23.5,"16:09:28",1
"20/10/03","16:20",0.0,24.2,73.8,1008.3,333.1,1.2,2.7,340.7,0.05,19.3,23.6,"16:17:52",1
"20/10/03","16:30",0.0,24.1,74.8,1008.3,333.1,1.2,2.1,327.1,0.05,19.4,23.5,"16:26:00",1
"20/10/03","16:40",0.0,24.0,75.2,1008.3,318.5,1.1,2.0,342.4,0.04,19.4,23.5,"16:31:44",1
"20/10/03","16:50",0.0,23.8,75.4,1008.6,326.6,1.1,2.7,346.6,0.01,19.2,23.4,"16:42:16",1
"20/10/03","17:00",0.0,23.5,75.8,1008.6,333.7,1.3,2.6,341.6,0.00,19.0,23.4,"16:56:00",1
"20/10/03","17:10",0.0,23.5,76.0,1008.1,302.0,0.8,1.9,340.8,0.01,19.1,23.3,"17:00:40",1
"20/10/03","17:20",0.0,23.4,76.1,1008.3,278.9,0.6,1.1,257.3,0.00,19.0,23.2,"17:17:12",1
"20/10/03","17:30",0.0,23.1,76.3,1008.6,281.2,0.8,1.4,255.1,0.00,18.7,23.0,"17:24:16",1
"20/10/03","17:40",0.0,22.9,76.5,1008.6,296.8,0.8,1.3,334.1,0.00,18.6,23.2,"17:36:16",1
"20/10/03","17:50",0.0,22.8,77.3,1008.6,284.1,0.8,1.6,330.0,0.00,18.7,23.2,"17:41:12",1
"20/10/03","18:00",0.0,22.5,78.5,1008.8,279.4,1.0,1.9,241.6,0.00,18.6,23.2,"17:56:24",1
"20/10/03","18:10",0.0,22.3,79.6,1008.8,271.7,1.1,1.9,264.8,0.00,18.6,23.2,"18:07:52",1
"20/10/03","18:20",0.0,22.1,80.2,1009.0,273.0,1.1,2.1,266.5,0.00,18.6,23.0,"18:17:12",1
"20/10/03","18:30",0.0,22.0,80.6,1009.3,303.1,0.8,1.8,322.4,0.00,18.6,22.9,"18:27:04",1
"20/10/03","18:40",0.0,22.0,81.2,1009.5,309.1,1.2,2.6,335.7,0.00,18.7,22.8,"18:38:00",1
"20/10/03","18:50",0.0,22.0,81.7,1009.3,295.5,1.1,2.0,313.6,0.00,18.8,22.8,"18:41:20",1
"20/10/03","19:00",0.0,21.8,82.1,1009.7,279.1,1.2,2.0,316.8,0.00,18.7,22.8,"18:50:08",1
"20/10/03","19:10",0.0,21.8,82.4,1009.5,279.6,1.1,2.1,273.2,0.00,18.7,22.7,"19:00:16",1
"20/10/03","19:20",0.0,21.7,82.5,1009.5,289.3,0.8,1.2,262.2,0.00,18.6,22.6,"19:14:08",1
"20/10/03","19:30",0.0,21.7,82.7,1010.0,303.5,0.8,1.6,321.8,0.00,18.7,22.8,"19:27:12",1
"20/10/03","19:40",0.0,21.6,82.8,1010.0,284.5,0.8,0.9,276.9,0.00,18.6,22.7,"19:31:36",1
"20/10/03","19:50",0.0,21.5,83.0,1010.2,293.8,0.7,1.0,280.3,0.00,18.5,22.5,"19:48:48",1
"20/10/03","20:00",0.0,21.3,83.4,1010.7,294.4,0.8,1.6,330.3,0.00,18.4,22.6,"19:59:44",1
"20/10/03","20:10",0.0,21.3,83.7,1010.4,286.7,0.7,1.3,339.2,0.00,18.5,22.6,"20:00:16",1
"20/10/03","20:20",0.0,21.2,84.1,1010.2,286.1,0.8,1.4,279.6,0.00,18.4,22.5,"20:19:44",1
"20/10/03","20:30",0.0,21.3,84.6,1010.4,297.5,1.1,2.1,297.6,0.00,18.6,22.4,"20:28:16",1
"20/10/03","20:40",0.0,21.2,85.0,1010.7,294.4,1.0,1.8,310.9,0.00,18.6,22.5,"20:30:08",1
"20/10/03","20:50",0.0,21.1,85.1,1010.7,304.7,1.0,1.7,333.7,0.00,18.5,22.4,"20:41:36",1
"20/10/03","21:00",0.0,20.9,85.6,1011.2,287.3,0.7,1.1,274.2,0.00,18.4,22.3,"20:59:28",1
"20/10/03","21:10",0.0,20.9,86.0,1011.2,291.9,1.1,1.6,285.7,0.00,18.5,22.3,"21:00:48",1
"20/10/03","21:20",0.0,20.9,86.3,1010.9,286.8,1.1,1.6,310.4,0.00,18.6,22.1,"21:15:28",1
"20/10/03","21:30",0.0,20.9,86.5,1010.9,285.3,1.0,1.3,312.5,0.00,18.6,22.2,"21:23:44",1
"20/10/03","21:40",0.0,20.8,86.8,1010.7,315.2,1.1,1.4,325.6,0.00,18.6,22.0,"21:39:52",1
"20/10/03","21:50",0.0,20.7,86.9,1010.4,308.7,1.1,1.3,316.0,0.00,18.5,22.2,"21:40:16",1
"20/10/03","22:00",0.0,20.4,87.2,1010.7,312.8,1.0,1.2,316.5,0.00,18.2,22.2,"21:50:16",1
"20/10/03","22:10",0.0,20.4,87.4,1011.2,300.7,1.1,1.6,322.5,0.00,18.3,22.1,"22:00:08",1
"20/10/03","22:20",0.0,20.4,87.6,1010.4,302.5,0.7,1.3,334.5,0.00,18.3,22.2,"22:11:36",1
"20/10/03","22:30",0.0,20.3,87.8,1010.7,301.0,1.0,1.2,319.4,0.00,18.3,22.0,"22:27:04",1
"20/10/03","22:40",0.0,20.3,88.0,1010.7,303.2,1.1,1.7,334.5,0.00,18.3,22.1,"22:35:36",1
"20/10/03","22:50",0.0,20.3,88.2,1010.7,282.0,0.8,1.2,304.1,0.00,18.3,22.1,"22:43:36",1
"20/10/03","23:00",0.0,20.4,88.3,1010.7,292.7,1.0,1.6,322.5,0.00,18.4,21.9,"22:59:12",1
"20/10/03","23:10",0.0,20.3,88.5,1010.2,332.4,1.0,1.7,329.2,0.00,18.4,21.7,"23:02:48",1
"20/10/03","23:20",0.0,20.1,88.5,1010.2,299.4,0.6,1.3,325.8,0.00,18.2,21.8,"23:10:56",1
"20/10/03","23:30",0.0,20.0,88.7,1009.7,325.4,1.1,1.4,322.6,0.00,18.1,21.7,"23:22:48",1
"20/10/03","23:40",0.0,19.8,88.9,1010.0,302.4,0.8,1.2,319.5,0.00,18.0,22.0,"23:32:00",1
"20/10/03","23:50",0.0,19.7,89.1,1010.2,301.2,1.0,1.2,297.3,0.00,17.9,21.8,"23:42:56",1
"20/10/03","24:00",0.0,19.7,89.2,1009.7,295.6,0.6,1.0,315.0,0.00,17.9,21.7,"23:58:40",1
